This is the latest recevied weather packets stored in our database for station/object N7CEE. If no packets are shown the sender has not sent any weather packets the latest 10 day(s).
| Time | Temp. | Humidity | Pressure | Rain* | Wind** | Luminosity | Snow |
|---|---|---|---|---|---|---|---|
| 1777740102 | 15.56° C | 26% | 1027.8 hPa | 0 mm | - | 629 W/m² | - |
| 1777739798 | 14.44° C | 26% | 1027.8 hPa | 0 mm | - | 615 W/m² | - |
| 1777739495 | 14.44° C | 26% | 1027.8 hPa | 0 mm | - | 597 W/m² | - |
| 1777739192 | 14.44° C | 26% | 1027.8 hPa | 0 mm | - | 582 W/m² | - |
| 1777738889 | 13.89° C | 26% | 1027.7 hPa | 0 mm | - | 452 W/m² | - |
| 1777738586 | 13.33° C | 27% | 1027.8 hPa | 0 mm | - | 531 W/m² | - |
| 1777738283 | 13.33° C | 27% | 1027.7 hPa | 0 mm | - | 87 W/m² | - |
| 1777737981 | 13.33° C | 26% | 1027.8 hPa | 0 mm | - | 126 W/m² | - |
| 1777737680 | 13.33° C | 26% | 1027.7 hPa | 0 mm | - | 74 W/m² | - |
| 1777737378 | 13.33° C | 26% | 1027.6 hPa | 0 mm | - | 68 W/m² | - |
| 1777737074 | 12.78° C | 26% | 1027.7 hPa | 0 mm | - | 43 W/m² | - |
| 1777736771 | 12.78° C | 26% | 1027.7 hPa | 0 mm | - | 70 W/m² | - |
| 1777736148 | 13.33° C | 24% | 1027.4 hPa | 0 mm | - | 44 W/m² | - |
| 1777735845 | 12.78° C | 24% | 1027.6 hPa | 0 mm | - | 42 W/m² | - |
| 1777735543 | 12.78° C | 23% | 1027.4 hPa | 0 mm | - | 66 W/m² | - |
| 1777735240 | 12.22° C | 24% | 1027.3 hPa | 0 mm | - | 35 W/m² | - |
| 1777734937 | 12.22° C | 24% | 1027.3 hPa | 0 mm | - | 34 W/m² | - |
| 1777734634 | 12.22° C | 24% | 1027.4 hPa | 0 mm | - | 36 W/m² | - |
| 1777734332 | 11.67° C | 24% | 1027.2 hPa | 0 mm | - | 34 W/m² | - |
| 1777734028 | 11.67° C | 24% | 1027.2 hPa | 0 mm | - | 33 W/m² | - |
| 1777733724 | 11.11° C | 23% | 1027.3 hPa | 0 mm | - | 32 W/m² | - |
| 1777733421 | 10.56° C | 26% | 1027.2 hPa | 0 mm | - | 33 W/m² | - |
| 1777733117 | 10° C | 33% | 1027.3 hPa | 0 mm | - | 34 W/m² | - |
| 1777732814 | 9.44° C | 32% | 1027 hPa | 0 mm | - | 31 W/m² | - |
| 1777732510 | 8.33° C | 36% | 1027.1 hPa | 0 mm | - | 28 W/m² | - |
* Rain latest hour (hover to see other rain measurements)
** Current wind speed in m/s (hover to see current wind gust speed)